Regional Weather Roundup
Issued by NWS Cleveland, OH

Home | Current Version | Previous Version | Text Only | Print | Product List | Glossary Off
Versions: 1 2 3 4 5 6 7 8 9 10 11 12 13 14 15 16 17 18 19 20 21 22 23 24 25 26 27 28 29 30 31 32 33 34 35 36 37 38 39 40 41 42 43 44 45 46 47 48 49 50

000
ASUS41 KCLE 191802
RWRCLE
OHIO REGIONAL WEATHER ROUNDUP
NATIONAL WEATHER SERVICE CLEVELAND, OH
200 PM EDT SUN APR 19 2015

NOTE: "FAIR" INDICATES FEW OR NO CLOUDS BELOW 12,000 FEET WITH NO
SIGNIFICANT WEATHER AND/OR OBSTRUCTIONS TO VISIBILITY.

OHZ001>008-015>018-024>027-034-035-043-044-191900-
   NORTHWEST OHIO

CITY           SKY/WX    TMP DP  RH WIND       PRES   REMARKS
DEFIANCE       CLOUDY    63  41  44 NE15G22   29.76F
FINDLAY        CLOUDY    66  44  45 NE16      29.74F
TOLEDO EXPRESS PTSUNNY   55  38  52 E16G24    29.80F
TOLEDO EXEC    PTSUNNY   53  39  59 NE20G29   29.82F
LIMA           CLOUDY    73  54  51 SE16G28   29.73F
$$

OHZ009>014-019>023-028>033-038-089-191900-
   NORTHEAST OHIO

CITY           SKY/WX    TMP DP  RH WIND       PRES   REMARKS
CLE-HOPKINS    CLOUDY    74  44  34 SE13G24   29.84F
CLE-LAKEFRONT  PTSUNNY   51  43  74 NE13      29.82F
CUY CO. ARPT   CLOUDY    73  45  35 S17G23    29.86F
LORAIN-ELYRIA  CLOUDY    73  46  38 S16       29.81F
ASHTABULA      PTSUNNY   71  35  26 SE18G24   29.91F
AKRON-CANTON   CLOUDY    73  41  31 SE17G25   29.85F
WOOSTER        CLOUDY    71  45  39 SE22G28   29.82F
MANSFIELD      CLOUDY    74  47  38 E21       29.78F
YOUNGSTOWN     CLOUDY    72  37  28 SE20G31   29.89F
$$

OHZ042-051>053-060>062-070>072-077>081-191900-
  SOUTHWEST OHIO

CITY           SKY/WX    TMP DP  RH WIND       PRES   REMARKS
CINC-COVINGTON LGT RAIN  64  61  90 SE18G25   29.66F FOG
CINC-LUNKEN    LGT RAIN  65  62  90 E7        29.68F
HAMILTON       RAIN      64  62  93 E10G18    29.68F FOG
DAYTON         LGT RAIN  65  61  87 SE20      29.71F FOG
WRIGHT-PAT AFB NOT AVBL
DAYTON GENERAL RAIN      63  60  90 SE17G28   29.69F FOG
WILMINGTON     RAIN      63  59  87 SE17G24   29.72F FOG
$$

OHZ036-037-039>041-045>050-054>059-063>069-073>076-082>088-191900-
  CENTRAL AND SOUTHEAST OHIO

CITY           SKY/WX    TMP DP  RH WIND       PRES   REMARKS
COLUMBUS       LGT RAIN  69  52  54 SE15G29   29.77F
OSU AIRPORT    LGT RAIN  69  51  52 SE15G28   29.76F
BOLTON FIELD   CLOUDY    70  55  60 E14       29.76F
RICKENBACK AFB NOT AVBL
NEWARK         CLOUDY    74  47  38 SE16G25   29.77F
MARION         CLOUDY    73  48  41 S22G31    29.76F
LANCASTER      CLOUDY    68  52  56 SE16G24   29.78F
ZANESVILLE     CLOUDY    73  44  35 SE13G22   29.80F
NEW PHILLY     CLOUDY    75  42  30 E17G24    29.83F
$$



USA.gov is the U.S. government's official web portal to all federal, state and local government web resources and services.